Project,Study,Ord_Occ,Event_Num,Date_Time_UTC,Date_Time_PST,Lat_Dec,Lon_Dec,Sta_ID,Line,Sta,Depth,Pressure,Temp0,Temp1,Salt0,CorrSalt0,Salt1,CorrSalt1,O2ml/L,AveCorrO2ml/L,StaCorrO2ml/L,FluorV,AveEstChl,StaEstChl,ISUSV,AveEstNO3,StaEstNO3,SigThetaTS0,SigThetaTS1,BAT,XMiss,SPAR,PAR,BTL_Depth,BTL_Temp,BTL_Salt,BTL_O2ml/L,BTL_Chl,BTL_Pha,BTL_NO3
CalCOFI,0804JD,006,,25-Mar-2008 19:12:33,25-Mar-2008 11:12:33,32.68300,-117.86950,093.3 035.0,093.3,035.0,515.000,519.294,6.2374,6.2396,34.3218,34.3194,34.3144,34.3160,0.35057,0.34,0.34,0.0242,,,1.4158,36.57,39.614,26.9923,26.9862,0.1853,95.4747,0.0000e+00,1.0000e-12,515,6.24 ,34.318,  .30,,,39.1
CalCOFI,0804JD,006,,25-Mar-2008 19:12:36,25-Mar-2008 11:12:36,32.68300,-117.86950,093.3 035.0,093.3,035.0,514.000,518.284,6.2375,6.2396,34.3218,34.3194,34.3144,34.3160,0.35530,0.35,0.35,0.0245,,,1.3842,35.60,38.601,26.9923,26.9862,0.1851,95.4788,0.0000e+00,1.0000e-12,,,,,,,
CalCOFI,0804JD,006,,25-Mar-2008 19:12:50,25-Mar-2008 11:12:50,32.68300,-117.86950,093.3 035.0,093.3,035.0,513.000,517.274,6.2368,6.2386,34.3216,34.3192,34.3146,34.3162,-9.990e-29,,0.35,0.0242,,,1.4367,37.21,40.284,26.9923,26.9864,0.1852,95.4755,0.0000e+00,1.0000e-12,,,,,,,
CalCOFI,0804JD,006,,25-Mar-2008 19:12:59,25-Mar-2008 11:12:59,32.68300,-117.86950,093.3 035.0,093.3,035.0,512.000,516.265,6.2360,6.2380,34.3217,34.3193,34.3147,34.3163,-9.990e-29,,0.35,0.0243,,,1.3993,36.06,39.085,26.9924,26.9866,0.1851,95.4791,0.0000e+00,1.0000e-12,,,,,,,
CalCOFI,0804JD,006,,25-Mar-2008 19:13:03,25-Mar-2008 11:13:03,32.68300,-117.86950,093.3 035.0,093.3,035.0,511.000,515.255,6.2365,6.2382,34.3216,34.3192,34.3148,34.3164,0.35717,0.35,0.35,0.0246,,,1.3974,36.00,39.024,26.9922,26.9866,0.1852,95.4771,0.0000e+00,1.0000e-12,,,,,,,
CalCOFI,0804JD,006,,25-Mar-2008 19:13:05,25-Mar-2008 11:13:05,32.68300,-117.86950,093.3 035.0,093.3,035.0,510.000,514.246,6.2388,6.2406,34.3214,34.3190,34.3147,34.3163,0.35705,0.35,0.35,0.0244,,,1.4181,36.64,39.688,26.9917,26.9862,0.1850,95.4807,0.0000e+00,1.0000e-12,,,,,,,
CalCOFI,0804JD,006,,25-Mar-2008 19:13:06,25-Mar-2008 11:13:06,32.68300,-117.86950,093.3 035.0,093.3,035.0,509.000,513.236,6.2401,6.2419,34.3214,34.3190,34.3146,34.3162,0.35698,0.35,0.35,0.0245,,,1.4259,36.88,39.938,26.9916,26.9860,0.1855,95.4702,0.0000e+00,1.0000e-12,,,,,,,
CalCOFI,0804JD,006,,25-Mar-2008 19:13:07,25-Mar-2008 11:13:07,32.68300,-117.86950,093.3 035.0,093.3,035.0,508.000,512.227,6.2420,6.2438,34.3213,34.3189,34.3143,34.3159,0.35665,0.35,0.35,0.0240,,,1.4298,36.99,40.063,26.9913,26.9855,0.1852,95.4765,0.0000e+00,1.0000e-12,,,,,,,
CalCOFI,0804JD,006,,25-Mar-2008 19:13:08,25-Mar-2008 11:13:08,32.68300,-117.86950,093.3 035.0,093.3,035.0,507.000,511.217,6.2457,6.2471,34.3211,34.3187,34.3144,34.3160,0.35841,0.35,0.35,0.0239,,,1.3882,35.72,38.730,26.9906,26.9851,0.1855,95.4690,0.0000e+00,1.0000e-12,,,,,,,
CalCOFI,0804JD,006,,25-Mar-2008 19:13:09,25-Mar-2008 11:13:09,32.68300,-117.86950,093.3 035.0,093.3,035.0,506.000,510.208,6.2554,6.2575,34.3206,34.3182,34.3134,34.3150,0.35987,0.35,0.35,0.0244,,,1.3436,34.36,37.300,26.9889,26.9830,0.1849,95.4840,0.0000e+00,1.0000e-12,,,,,,,
CalCOFI,0804JD,006,,25-Mar-2008 19:13:11,25-Mar-2008 11:13:11,32.68300,-117.86950,093.3 035.0,093.3,035.0,505.000,509.198,6.2724,6.2771,34.3188,34.3164,34.3118,34.3134,0.36260,0.35,0.35,0.0241,,,1.3670,35.07,38.050,26.9854,26.9792,0.1849,95.4839,0.0000e+00,1.0000e-12,,,,,,,
CalCOFI,0804JD,006,,25-Mar-2008 19:13:12,25-Mar-2008 11:13:12,32.68300,-117.86950,093.3 035.0,093.3,035.0,504.000,508.188,6.2853,6.2878,34.3177,34.3153,34.3110,34.3126,0.36477,0.36,0.36,0.0243,,,1.3961,35.96,38.983,26.9828,26.9772,0.1849,95.4832,0.0000e+00,1.0000e-12,,,,,,,
CalCOFI,0804JD,006,,25-Mar-2008 19:13:14,25-Mar-2008 11:13:14,32.68300,-117.86950,093.3 035.0,093.3,035.0,503.000,507.179,6.2914,6.2948,34.3173,34.3149,34.3106,34.3122,0.36722,0.36,0.36,0.0241,,,1.4044,36.22,39.249,26.9817,26.9760,0.1851,95.4795,0.0000e+00,1.0000e-12,,,,,,,
CalCOFI,0804JD,006,,25-Mar-2008 19:13:15,25-Mar-2008 11:13:15,32.68300,-117.86950,093.3 035.0,093.3,035.0,502.000,506.169,6.2981,6.2996,34.3168,34.3144,34.3104,34.3120,0.36909,0.36,0.36,0.0240,,,1.3925,35.85,38.867,26.9804,26.9752,0.1852,95.4757,0.0000e+00,1.0000e-12,,,,,,,
CalCOFI,0804JD,006,,25-Mar-2008 19:13:17,25-Mar-2008 11:13:17,32.68300,-117.86950,093.3 035.0,093.3,035.0,501.000,505.160,6.3017,6.3043,34.3166,34.3142,34.3100,34.3116,0.37047,0.36,0.36,0.0243,,,1.3749,35.31,38.303,26.9797,26.9742,0.1855,95.4697,0.0000e+00,1.0000e-12,,,,,,,
CalCOFI,0804JD,006,,25-Mar-2008 19:13:18,25-Mar-2008 11:13:18,32.68300,-117.86950,093.3 035.0,093.3,035.0,500.000,504.150,6.3066,6.3081,34.3163,34.3139,34.3099,34.3115,0.37144,0.36,0.36,0.0245,,,1.3606,34.88,37.845,26.9789,26.9736,0.1852,95.4763,0.0000e+00,1.0000e-12,,,,,,,
CalCOFI,0804JD,006,,25-Mar-2008 19:13:19,25-Mar-2008 11:13:19,32.68300,-117.86950,093.3 035.0,093.3,035.0,499.000,503.141,6.3089,6.3097,34.3162,34.3138,34.3096,34.3112,0.37309,0.36,0.36,0.0243,,,1.4075,36.31,39.348,26.9785,26.9732,0.1852,95.4772,0.0000e+00,1.0000e-12,,,,,,,
CalCOFI,0804JD,006,,25-Mar-2008 19:13:20,25-Mar-2008 11:13:20,32.68300,-9.990e-29,093.3 035.0,093.3,035.0,498.000,502.131,6.3119,6.3130,34.3158,34.3134,34.3095,34.3111,0.37394,0.37,0.37,0.0243,,,1.3240,33.76,36.671,26.9778,26.9727,0.1851,95.4777,0.0000e+00,1.0000e-12,,,,,,,
CalCOFI,0804JD,006,,25-Mar-2008 19:13:21,25-Mar-2008 11:13:21,32.68300,-9.990e-29,093.3 035.0,093.3,035.0,497.000,501.122,6.3156,6.3162,34.3154,34.3130,34.3092,34.3108,0.37473,0.37,0.37,0.0245,,,1.3922,35.84,38.858,26.9770,26.9720,0.1855,95.4684,0.0000e+00,1.0000e-12,,,,,,,
CalCOFI,0804JD,006,,25-Mar-2008 19:13:22,25-Mar-2008 11:13:22,32.68300,-9.990e-29,093.3 035.0,093.3,035.0,496.000,500.112,6.3193,6.3210,34.3152,34.3128,34.3086,34.3102,0.37609,0.37,0.37,0.0242,,,1.4552,37.77,40.878,26.9763,26.9709,0.1856,95.4669,0.0000e+00,1.0000e-12,,,,,,,
CalCOFI,0804JD,006,,25-Mar-2008 19:13:23,25-Mar-2008 11:13:23,32.68300,-9.990e-29,093.3 035.0,093.3,035.0,495.000,499.103,6.3230,6.3252,34.3146,34.3122,34.3080,34.3096,0.37693,0.37,0.37,0.0244,,,1.3972,36.00,39.018,26.9754,26.9699,0.1857,95.4653,0.0000e+00,1.0000e-12,,,,,,,
CalCOFI,0804JD,006,,25-Mar-2008 19:13:25,25-Mar-2008 11:13:25,32.68300,-9.990e-29,093.3 035.0,093.3,035.0,494.000,498.093,6.3249,6.3264,34.3144,34.3120,34.3078,34.3094,0.37782,0.37,0.37,0.0240,,,1.3784,35.42,38.415,26.9750,26.9696,0.1855,95.4698,0.0000e+00,1.0000e-12,,,,,,,
CalCOFI,0804JD,006,,25-Mar-2008 19:13:26,25-Mar-2008 11:13:26,32.68300,-117.86934,093.3 035.0,093.3,035.0,493.000,497.084,6.3285,6.3293,34.3139,34.3115,34.3074,34.3090,0.38023,0.37,0.37,0.0242,,,1.4181,36.64,39.688,26.9741,26.9689,0.1857,95.4653,0.0000e+00,1.0000e-12,,,,,,,
CalCOFI,0804JD,006,,25-Mar-2008 19:13:28,25-Mar-2008 11:13:28,32.68300,-117.86934,093.3 035.0,093.3,035.0,492.000,496.074,6.3410,6.3443,34.3128,34.3104,34.3059,34.3075,0.38315,0.38,0.37,0.0243,,,1.3478,34.49,37.434,26.9716,26.9657,0.1854,95.4716,0.0000e+00,1.0000e-12,,,,,,,
CalCOFI,0804JD,006,,25-Mar-2008 19:13:29,25-Mar-2008 11:13:29,32.68300,-117.86934,093.3 035.0,093.3,035.0,491.000,495.065,6.3690,6.3755,34.3098,34.3074,34.3026,34.3042,0.38610,0.38,0.38,0.0240,,,1.4387,37.27,40.349,26.9656,26.9591,0.1860,95.4581,0.0000e+00,1.0000e-12,,,,,,,
CalCOFI,0804JD,006,,25-Mar-2008 19:13:30,25-Mar-2008 11:13:30,32.68300,-117.86934,093.3 035.0,093.3,035.0,490.000,494.055,6.3777,6.3781,34.3088,34.3064,34.3026,34.3042,0.38989,0.38,0.38,0.0244,,,1.3976,36.01,39.031,26.9637,26.9587,0.1864,95.4483,0.0000e+00,1.0000e-12,,,,,,,
CalCOFI,0804JD,006,,25-Mar-2008 19:13:31,25-Mar-2008 11:13:31,32.68300,-117.86934,093.3 035.0,093.3,035.0,489.000,493.046,6.3895,6.3897,34.3080,34.3056,34.3017,34.3033,0.36455,0.36,0.36,0.0242,,,1.3317,33.99,36.918,26.9614,26.9565,0.1869,95.4347,0.0000e+00,1.0000e-12,,,,,,,
CalCOFI,0804JD,006,,25-Mar-2008 19:13:32,25-Mar-2008 11:13:32,32.68300,-117.86934,093.3 035.0,093.3,035.0,488.000,492.036,6.3959,6.3969,34.3075,34.3051,34.3012,34.3028,0.39498,0.39,0.39,0.0242,,,1.3696,35.15,38.133,26.9602,26.9551,0.1867,95.4405,0.0000e+00,1.0000e-12,,,,,,,
CalCOFI,0804JD,006,,25-Mar-2008 19:13:33,25-Mar-2008 11:13:33,32.68300,-117.86934,093.3 035.0,093.3,035.0,487.000,491.027,6.4033,6.4044,34.3068,34.3044,34.3005,34.3021,0.39710,0.39,0.39,0.0245,,,1.3999,36.08,39.105,26.9587,26.9536,0.1866,95.4424,0.0000e+00,1.0000e-12,,,,,,,
CalCOFI,0804JD,006,,25-Mar-2008 19:13:34,25-Mar-2008 11:13:34,32.68300,-117.86934,093.3 035.0,093.3,035.0,486.000,490.017,6.4057,6.4070,34.3067,34.3043,34.3005,34.3021,0.39892,0.39,0.39,0.0243,,,1.4110,36.42,39.461,26.9583,26.9532,0.1867,95.4407,0.0000e+00,1.0000e-12,,,,,,,
CalCOFI,0804JD,006,,25-Mar-2008 19:13:35,25-Mar-2008 11:13:35,32.68300,-117.86934,093.3 035.0,093.3,035.0,485.000,489.008,6.4090,6.4108,34.3065,34.3041,34.3002,34.3018,0.40178,0.39,0.39,0.0246,,,1.3751,35.32,38.310,26.9577,26.9525,0.1867,95.4398,0.0000e+00,1.0000e-12,,,,,,,
CalCOFI,0804JD,006,,25-Mar-2008 19:13:37,25-Mar-2008 11:13:37,32.68300,-117.86934,093.3 035.0,093.3,035.0,484.000,487.999,6.4117,6.4133,34.3065,34.3041,34.3001,34.3017,0.40326,0.40,0.39,-9.990e-29,,,1.3560,34.74,37.697,26.9573,26.9521,0.1867,95.4400,0.0000e+00,1.0000e-12,,,,,,,
CalCOFI,0804JD,006,,25-Mar-2008 19:13:38,25-Mar-2008 11:13:38,32.68300,-117.86934,093.3 035.0,093.3,035.0,483.000,486.989,6.4217,6.4237,34.3055,34.3031,34.2991,34.3007,0.40472,0.40,0.40,-9.990e-29,,,1.4028,36.17,39.198,26.9553,26.9500,0.1865,95.4445,0.0000e+00,1.0000e-12,,,,,,,
CalCOFI,0804JD,006,,25-Mar-2008 19:13:39,25-Mar-2008 11:13:39,32.68300,-117.86934,093.3 035.0,093.3,035.0,482.000,485.980,6.4231,6.4248,34.3054,34.3030,34.2992,34.3008,0.40609,0.40,0.40,-9.990e-29,,,1.3896,35.76,38.774,26.9549,26.9498,0.1867,95.4411,0.0000e+00,1.0000e-12,,,,,,,
CalCOFI,0804JD,006,,25-Mar-2008 19:13:40,25-Mar-2008 11:13:40,32.68300,-117.86934,093.3 035.0,093.3,035.0,481.000,484.970,6.4275,6.4292,34.3054,34.3030,34.2990,34.3006,0.40825,0.40,0.40,-9.990e-29,,,1.3893,35.76,38.765,26.9543,26.9491,0.1866,95.4422,0.0000e+00,1.0000e-12,,,,,,,
CalCOFI,0804JD,006,,25-Mar-2008 19:13:41,25-Mar-2008 11:13:41,32.68302,-117.86934,093.3 035.0,093.3,035.0,480.000,483.961,6.4455,6.4463,34.3042,34.3018,34.2977,34.2993,0.41117,0.40,0.40,-9.990e-29,,,1.3953,35.94,38.957,26.9511,26.9459,0.1866,95.4420,0.0000e+00,1.0000e-12,,,,,,,
CalCOFI,0804JD,006,,25-Mar-2008 19:13:42,25-Mar-2008 11:13:42,32.68316,-117.86934,093.3 035.0,093.3,035.0,479.000,482.951,6.4620,6.4630,34.3030,34.3006,34.2967,34.2983,0.41378,0.41,0.41,-9.990e-29,,,1.3692,35.14,38.120,26.9479,26.9428,0.1867,95.4404,0.0000e+00,1.0000e-12,,,,,,,
CalCOFI,0804JD,006,,25-Mar-2008 19:13:44,25-Mar-2008 11:13:44,32.68316,-117.86934,093.3 035.0,093.3,035.0,478.000,481.942,6.4703,6.4722,34.3022,34.2998,34.2959,34.2975,0.41648,0.41,0.41,0.0245,,,1.4007,36.10,39.130,26.9463,26.9410,0.1866,95.4435,0.0000e+00,1.0000e-12,,,,,,,
CalCOFI,0804JD,006,,25-Mar-2008 19:13:45,25-Mar-2008 11:13:45,32.68316,-117.86934,093.3 035.0,093.3,035.0,477.000,480.932,6.4736,6.4749,34.3020,34.2996,34.2958,34.2974,0.41824,0.41,0.41,0.0244,,,1.3815,35.52,38.515,26.9457,26.9405,0.1864,95.4487,0.0000e+00,1.0000e-12,,,,,,,
CalCOFI,0804JD,006,,25-Mar-2008 19:13:46,25-Mar-2008 11:13:46,32.68316,-117.86934,093.3 035.0,093.3,035.0,476.000,479.923,6.4774,6.4789,34.3018,34.2994,34.2954,34.2970,0.42130,0.41,0.41,0.0241,,,1.3774,35.39,38.383,26.9449,26.9397,0.1864,95.4481,0.0000e+00,1.0000e-12,,,,,,,
CalCOFI,0804JD,006,,25-Mar-2008 19:13:47,25-Mar-2008 11:13:47,32.68316,-117.86934,093.3 035.0,093.3,035.0,475.000,478.914,6.4830,6.4844,34.3016,34.2992,34.2952,34.2968,0.42297,0.42,0.41,0.0243,,,1.3894,35.76,38.768,26.9440,26.9388,0.1863,95.4513,0.0000e+00,1.0000e-12,,,,,,,
CalCOFI,0804JD,006,,25-Mar-2008 19:13:48,25-Mar-2008 11:13:48,32.68316,-117.86934,093.3 035.0,093.3,035.0,474.000,477.904,6.4878,6.4891,34.3007,34.2983,34.2946,34.2962,0.42426,0.42,0.42,0.0244,,,1.3633,34.96,37.931,26.9427,26.9377,0.1868,95.4391,0.0000e+00,1.0000e-12,,,,,,,
CalCOFI,0804JD,006,,25-Mar-2008 19:13:49,25-Mar-2008 11:13:49,32.68316,-117.86934,093.3 035.0,093.3,035.0,473.000,476.895,6.4883,6.4899,34.3004,34.2980,34.2942,34.2958,0.42662,0.42,0.42,0.0240,,,1.3694,35.15,38.127,26.9424,26.9373,0.1875,95.4224,0.0000e+00,1.0000e-12,,,,,,,
CalCOFI,0804JD,006,,25-Mar-2008 19:13:50,25-Mar-2008 11:13:50,32.68316,-117.86934,093.3 035.0,093.3,035.0,472.000,475.885,6.4886,6.4905,34.3004,34.2980,34.2941,34.2957,0.42688,0.42,0.42,0.0244,,,1.4035,36.19,39.220,26.9423,26.9371,0.1872,95.4279,0.0000e+00,1.0000e-12,,,,,,,
CalCOFI,0804JD,006,,25-Mar-2008 19:13:52,25-Mar-2008 11:13:52,32.68316,-117.86934,093.3 035.0,093.3,035.0,471.000,474.876,6.4886,6.4907,34.3003,34.2979,34.2939,34.2955,0.42881,0.42,0.42,0.0240,,,1.4164,36.58,39.634,26.9422,26.9369,0.1871,95.4317,0.0000e+00,1.0000e-12,,,,,,,
CalCOFI,0804JD,006,,25-Mar-2008 19:13:53,25-Mar-2008 11:13:53,32.68316,-117.86934,093.3 035.0,093.3,035.0,470.000,473.867,6.4915,6.4928,34.3000,34.2976,34.2936,34.2952,0.43136,0.42,0.42,0.0239,,,1.3855,35.64,38.643,26.9416,26.9364,0.1870,95.4325,0.0000e+00,1.0000e-12,,,,,,,
CalCOFI,0804JD,006,,25-Mar-2008 19:13:54,25-Mar-2008 11:13:54,32.68316,-117.86934,093.3 035.0,093.3,035.0,469.000,472.857,6.5038,6.5040,34.2990,34.2966,34.2925,34.2941,0.43392,0.43,0.43,0.0244,,,1.3489,34.52,37.470,26.9392,26.9341,0.1878,95.4151,0.0000e+00,1.0000e-12,,,,,,,
CalCOFI,0804JD,006,,25-Mar-2008 19:13:55,25-Mar-2008 11:13:55,32.68316,-117.86934,093.3 035.0,093.3,035.0,468.000,471.848,6.5227,6.5246,34.2977,34.2953,34.2912,34.2928,0.43718,0.43,0.43,0.0245,,,1.3913,35.82,38.829,26.9357,26.9303,0.1879,95.4111,0.0000e+00,1.0000e-12,,,,,,,
CalCOFI,0804JD,006,,25-Mar-2008 19:13:56,25-Mar-2008 11:13:56,32.68316,-117.86934,093.3 035.0,093.3,035.0,467.000,470.839,6.5264,6.5290,34.2975,34.2951,34.2911,34.2927,0.44122,0.43,0.43,0.0241,,,1.3643,34.99,37.963,26.9350,26.9297,0.1880,95.4097,0.0000e+00,1.0000e-12,,,,,,,
CalCOFI,0804JD,006,,25-Mar-2008 19:13:58,25-Mar-2008 11:13:58,32.68316,-117.86934,093.3 035.0,093.3,035.0,466.000,469.829,6.5283,6.5293,34.2976,34.2952,34.2911,34.2927,0.44317,0.44,0.43,0.0246,,,1.3778,35.40,38.396,26.9348,26.9296,0.1883,95.4020,0.0000e+00,1.0000e-12,,,,,,,
CalCOFI,0804JD,006,,25-Mar-2008 19:13:59,25-Mar-2008 11:13:59,32.68316,-117.86934,093.3 035.0,093.3,035.0,465.000,468.820,6.5310,6.5329,34.2974,34.2950,34.2910,34.2926,0.44336,0.44,0.43,0.0241,,,1.3432,34.34,37.287,26.9343,26.9290,0.1879,95.4118,0.0000e+00,1.0000e-12,,,,,,,
CalCOFI,0804JD,006,,25-Mar-2008 19:14:00,25-Mar-2008 11:14:00,32.68316,-117.86934,093.3 035.0,093.3,035.0,464.000,467.811,6.5340,6.5359,34.2976,34.2952,34.2911,34.2927,0.44434,0.44,0.44,0.0242,,,1.4087,36.35,39.387,26.9341,26.9287,0.1878,95.4147,0.0000e+00,1.0000e-12,,,,,,,
CalCOFI,0804JD,006,,25-Mar-2008 19:14:01,25-Mar-2008 11:14:01,32.68316,-117.86934,093.3 035.0,093.3,035.0,463.000,466.801,6.5406,6.5429,34.2976,34.2952,34.2912,34.2928,0.44470,0.44,0.44,0.0242,,,1.4167,36.59,39.643,26.9332,26.9278,0.1879,95.4107,0.0000e+00,1.0000e-12,,,,,,,
CalCOFI,0804JD,006,,25-Mar-2008 19:14:02,25-Mar-2008 11:14:02,32.68316,-117.86934,093.3 035.0,093.3,035.0,462.000,465.792,6.5431,6.5451,34.2977,34.2953,34.2912,34.2928,0.44615,0.44,0.44,0.0242,,,1.3629,34.95,37.918,26.9329,26.9275,0.1877,95.4174,0.0000e+00,1.0000e-12,,,,,,,
CalCOFI,0804JD,006,,25-Mar-2008 19:14:03,25-Mar-2008 11:14:03,32.68316,-117.86934,093.3 035.0,093.3,035.0,461.000,464.783,6.5495,6.5513,34.2981,34.2957,34.2915,34.2931,0.44863,0.44,0.44,0.0243,,,1.3703,35.17,38.156,26.9324,26.9269,0.1878,95.4141,0.0000e+00,1.0000e-12,,,,,,,
CalCOFI,0804JD,006,,25-Mar-2008 19:14:04,25-Mar-2008 11:14:04,32.68316,-117.86934,093.3 035.0,093.3,035.0,460.000,463.773,6.5765,6.5785,34.2969,34.2945,34.2900,34.2916,0.45110,0.44,0.44,0.0242,,,1.3848,35.62,38.621,26.9278,26.9222,0.1882,95.4051,0.0000e+00,1.0000e-12,,,,,,,
CalCOFI,0804JD,006,,25-Mar-2008 19:14:05,25-Mar-2008 11:14:05,32.68316,-117.86934,093.3 035.0,093.3,035.0,459.000,462.764,6.5953,6.5975,34.2952,34.2928,34.2885,34.2901,0.45467,0.45,0.45,0.0244,,,1.3649,35.01,37.983,26.9240,26.9185,0.1877,95.4158,0.0000e+00,1.0000e-12,,,,,,,
CalCOFI,0804JD,006,,25-Mar-2008 19:14:06,25-Mar-2008 11:14:06,32.68316,-117.86934,093.3 035.0,093.3,035.0,458.000,461.755,6.6033,6.6051,34.2942,34.2918,34.2879,34.2895,0.45621,0.45,0.45,0.0242,,,1.3420,34.31,37.248,26.9222,26.9170,0.1873,95.4257,0.0000e+00,1.0000e-12,,,,,,,
CalCOFI,0804JD,006,,25-Mar-2008 19:14:07,25-Mar-2008 11:14:07,32.68316,-117.86934,093.3 035.0,093.3,035.0,457.000,460.745,6.6077,6.6097,34.2940,34.2916,34.2877,34.2893,0.46020,0.45,0.45,0.0239,,,1.3886,35.73,38.742,26.9214,26.9161,0.1877,95.4174,0.0000e+00,1.0000e-12,,,,,,,
CalCOFI,0804JD,006,,25-Mar-2008 19:14:09,25-Mar-2008 11:14:09,32.68316,-117.86934,093.3 035.0,093.3,035.0,456.000,459.736,6.6099,6.6121,34.2939,34.2915,34.2874,34.2890,0.46326,0.46,0.45,0.0243,,,1.3970,35.99,39.012,26.9210,26.9156,0.1873,95.4272,0.0000e+00,1.0000e-12,,,,,,,
CalCOFI,0804JD,006,,25-Mar-2008 19:14:10,25-Mar-2008 11:14:10,32.68316,-117.86934,093.3 035.0,093.3,035.0,455.000,458.727,6.6130,6.6152,34.2938,34.2914,34.2874,34.2890,0.46460,0.46,0.46,0.0241,,,1.3564,34.75,37.710,26.9205,26.9152,0.1881,95.4077,0.0000e+00,1.0000e-12,,,,,,,
CalCOFI,0804JD,006,,25-Mar-2008 19:14:11,25-Mar-2008 11:14:11,32.68316,-117.86934,093.3 035.0,093.3,035.0,454.000,457.717,6.6164,6.6182,34.2936,34.2912,34.2873,34.2889,0.46643,0.46,0.46,0.0239,,,1.3462,34.44,37.383,26.9198,26.9146,0.1888,95.3890,0.0000e+00,1.0000e-12,,,,,,,
CalCOFI,0804JD,006,,25-Mar-2008 19:14:12,25-Mar-2008 11:14:12,32.68316,-117.86934,093.3 035.0,093.3,035.0,453.000,456.708,6.6196,6.6215,34.2935,34.2911,34.2872,34.2888,0.46814,0.46,0.46,0.0241,,,1.3655,35.03,38.002,26.9194,26.9141,0.1890,95.3844,0.0000e+00,1.0000e-12,,,,,,,
CalCOFI,0804JD,006,,25-Mar-2008 19:14:13,25-Mar-2008 11:14:13,32.68316,-117.86934,093.3 035.0,093.3,035.0,452.000,455.699,6.6284,6.6296,34.2924,34.2900,34.2861,34.2877,0.47132,0.46,0.46,0.0243,,,1.3771,35.38,38.374,26.9174,26.9122,0.1891,95.3823,0.0000e+00,1.0000e-12,,,,,,,
CalCOFI,0804JD,006,,25-Mar-2008 19:14:14,25-Mar-2008 11:14:14,32.68316,-117.86934,093.3 035.0,093.3,035.0,451.000,454.689,6.6345,6.6367,34.2915,34.2891,34.2850,34.2866,0.47494,0.47,0.47,0.0242,,,1.3687,35.13,38.104,26.9158,26.9104,0.1898,95.3652,0.0000e+00,1.0000e-12,,,,,,,
CalCOFI,0804JD,006,,25-Mar-2008 19:14:16,25-Mar-2008 11:14:16,32.68316,-117.86934,093.3 035.0,093.3,035.0,450.000,453.680,6.6368,6.6388,34.2911,34.2887,34.2848,34.2864,0.47625,0.47,0.47,0.0244,,,1.3387,34.21,37.143,26.9151,26.9099,0.1898,95.3671,0.0000e+00,1.0000e-12,,,,,,,
CalCOFI,0804JD,006,,25-Mar-2008 19:14:17,25-Mar-2008 11:14:17,32.68316,-117.86934,093.3 035.0,093.3,035.0,449.000,452.671,6.6373,6.6393,34.2909,34.2885,34.2847,34.2863,0.47961,0.47,0.47,0.0246,,,1.3281,33.88,36.803,26.9149,26.9097,0.1901,95.3589,0.0000e+00,1.0000e-12,,,,,,,
CalCOFI,0804JD,006,,25-Mar-2008 19:14:18,25-Mar-2008 11:14:18,32.68316,-117.86934,093.3 035.0,093.3,035.0,448.000,451.662,6.6388,6.6409,34.2908,34.2884,34.2845,34.2861,0.48100,0.47,0.47,0.0244,,,1.3606,34.88,37.845,26.9146,26.9094,0.1901,95.3601,0.0000e+00,1.0000e-12,,,,,,,
CalCOFI,0804JD,006,,25-Mar-2008 19:14:19,25-Mar-2008 11:14:19,32.68316,-117.86934,093.3 035.0,093.3,035.0,447.000,450.652,6.6406,6.6426,34.2905,34.2881,34.2843,34.2859,0.48336,0.48,0.47,0.0238,,,1.3776,35.40,38.390,26.9142,26.9090,0.1901,95.3590,0.0000e+00,1.0000e-12,,,,,,,
CalCOFI,0804JD,006,,25-Mar-2008 19:14:20,25-Mar-2008 11:14:20,32.68316,-117.86934,093.3 035.0,093.3,035.0,446.000,449.643,6.6450,6.6467,34.2899,34.2875,34.2837,34.2853,0.48517,0.48,0.48,0.0246,,,1.3676,35.09,38.069,26.9131,26.9080,0.1905,95.3504,0.0000e+00,1.0000e-12,,,,,,,
CalCOFI,0804JD,006,,25-Mar-2008 19:14:21,25-Mar-2008 11:14:21,32.68316,-117.86934,093.3 035.0,093.3,035.0,445.000,448.634,6.6497,6.6516,34.2888,34.2864,34.2826,34.2842,0.48873,0.48,0.48,0.0247,,,1.3668,35.07,38.043,26.9116,26.9064,0.1908,95.3433,0.0000e+00,1.0000e-12,,,,,,,
CalCOFI,0804JD,006,,25-Mar-2008 19:14:22,25-Mar-2008 11:14:22,32.68316,-117.86934,093.3 035.0,093.3,035.0,444.000,447.625,6.6591,6.6606,34.2876,34.2852,34.2813,34.2829,0.49347,0.49,0.48,0.0244,,,1.3665,35.06,38.034,26.9094,26.9042,0.1912,95.3326,0.0000e+00,1.0000e-12,,,,,,,
CalCOFI,0804JD,006,,25-Mar-2008 19:14:23,25-Mar-2008 11:14:23,32.68316,-117.86934,093.3 035.0,093.3,035.0,443.000,446.615,6.6783,6.6798,34.2856,34.2832,34.2793,34.2809,0.49919,0.49,0.49,0.0244,,,1.3781,35.41,38.406,26.9052,26.9000,0.1912,95.3317,0.0000e+00,1.0000e-12,,,,,,,
CalCOFI,0804JD,006,,25-Mar-2008 19:14:24,25-Mar-2008 11:14:24,32.68316,-117.86934,093.3 035.0,093.3,035.0,442.000,445.606,6.6885,6.6904,34.2843,34.2819,34.2780,34.2796,0.50437,0.50,0.50,0.0242,,,1.3913,35.82,38.829,26.9028,26.8976,0.1917,95.3214,0.0000e+00,1.0000e-12,,,,,,,
CalCOFI,0804JD,006,,25-Mar-2008 19:14:26,25-Mar-2008 11:14:26,32.68316,-117.86934,093.3 035.0,093.3,035.0,441.000,444.597,6.6948,6.6970,34.2835,34.2811,34.2774,34.2790,0.50897,0.50,0.50,0.0241,,,1.3941,35.90,38.919,26.9013,26.8962,0.1915,95.3246,0.0000e+00,1.0000e-12,,,,,,,
CalCOFI,0804JD,006,,25-Mar-2008 19:14:27,25-Mar-2008 11:14:27,32.68316,-117.86934,093.3 035.0,093.3,035.0,440.000,443.588,6.7003,6.7029,34.2832,34.2808,34.2770,34.2786,0.51413,0.51,0.51,0.0245,,,1.3464,34.44,37.389,26.9004,26.8951,0.1914,95.3278,0.0000e+00,1.0000e-12,,,,,,,
CalCOFI,0804JD,006,,25-Mar-2008 19:14:29,25-Mar-2008 11:14:29,32.68316,-117.86934,093.3 035.0,093.3,035.0,439.000,442.578,6.7196,6.7220,34.2834,34.2810,34.2771,34.2787,0.51978,0.51,0.51,0.0240,,,1.3325,34.02,36.944,26.8979,26.8926,0.1917,95.3207,0.0000e+00,1.0000e-12,,,,,,,
CalCOFI,0804JD,006,,25-Mar-2008 19:14:31,25-Mar-2008 11:14:31,32.68316,-117.86934,093.3 035.0,093.3,035.0,438.000,441.569,6.7420,6.7444,34.2826,34.2802,34.2764,34.2780,0.52486,0.52,0.52,0.0242,,,1.3513,34.59,37.546,26.8943,26.8890,0.1916,95.3235,0.0000e+00,1.0000e-12,,,,,,,
CalCOFI,0804JD,006,,25-Mar-2008 19:14:32,25-Mar-2008 11:14:32,32.68316,-117.86934,093.3 035.0,093.3,035.0,437.000,440.560,6.7498,6.7531,34.2821,34.2797,34.2762,34.2778,0.52793,0.52,0.52,0.0243,,,1.3609,34.89,37.854,26.8928,26.8878,0.1906,95.3462,0.0000e+00,1.0000e-12,437,6.75 ,34.279,  .49,,,37.3
CalCOFI,0804JD,006,,25-Mar-2008 19:15:04,25-Mar-2008 11:15:04,32.68332,-117.86931,093.3 035.0,093.3,035.0,436.000,439.551,6.7473,6.7466,34.2814,34.2790,34.2762,34.2778,0.53346,0.53,0.53,0.0242,,,1.3409,34.27,37.213,26.8926,26.8886,0.1913,95.3295,0.0000e+00,1.0000e-12,,,,,,,
CalCOFI,0804JD,006,,25-Mar-2008 19:16:06,25-Mar-2008 11:16:06,32.68349,-117.86918,093.3 035.0,093.3,035.0,435.000,438.541,6.7535,6.7546,34.2811,34.2787,34.2762,34.2778,0.53699,0.53,0.53,-9.990e-29,,,1.3304,33.95,36.876,26.8915,26.8875,0.1914,95.3271,0.0000e+00,1.0000e-12,,,,,,,
CalCOFI,0804JD,006,,25-Mar-2008 19:16:11,25-Mar-2008 11:16:11,32.68350,-117.86918,093.3 035.0,093.3,035.0,434.000,437.532,6.7549,6.7570,34.2808,34.2784,34.2760,34.2776,0.53896,0.53,0.53,-9.990e-29,,,1.3615,34.90,37.874,26.8911,26.8870,0.1918,95.3174,0.0000e+00,1.0000e-12,,,,,,,
CalCOFI,0804JD,006,,25-Mar-2008 19:16:13,25-Mar-2008 11:16:13,32.68350,-117.86918,093.3 035.0,093.3,035.0,433.000,436.523,6.7708,6.7751,34.2805,34.2781,34.2752,34.2768,0.54144,0.53,0.53,-9.990e-29,,,1.3571,34.77,37.732,26.8887,26.8839,0.1915,95.3259,0.0000e+00,1.0000e-12,,,,,,,
CalCOFI,0804JD,006,,25-Mar-2008 19:16:14,25-Mar-2008 11:16:14,32.68350,-117.86918,093.3 035.0,093.3,035.0,432.000,435.514,6.7818,6.7830,34.2797,34.2773,34.2750,34.2766,0.54251,0.54,0.53,0.0243,,,1.3400,34.25,37.184,26.8866,26.8827,0.1896,95.3707,0.0000e+00,1.0000e-12,,,,,,,
CalCOFI,0804JD,006,,25-Mar-2008 19:16:16,25-Mar-2008 11:16:16,32.68350,-117.86918,093.3 035.0,093.3,035.0,431.000,434.505,6.7828,6.7842,34.2796,34.2772,34.2749,34.2765,0.54365,0.54,0.54,0.0243,,,1.3523,34.62,37.579,26.8863,26.8825,0.1893,95.3785,0.0000e+00,1.0000e-12,,,,,,,